FW8475 Weather Reports


time (UTC)temp
C
wind
direction
speed
KPH
gust
KPH
rain 1hr
cm
rain 24hr
cm
rain mn
cm
humidity
%
barometer
mb
20260503021017 12 0.0 0.0 0.00 0.00 0.00 73 1020.0
20260503020017 12 0.0 1.6 0.00 0.00 0.00 73 1019.9
20260503015017 12 0.0 1.6 0.00 0.00 0.00 74 1019.9
20260503014017 13 0.0 0.0 0.00 0.00 0.00 74 1020.0
20260503012057 13 0.0 0.0 0.00 0.00 0.00 73 1020.1
20260503011017 13 0.0 0.0 0.00 0.00 0.00 73 1020.2
20260503010017 13 0.0 0.0 0.00 0.00 0.00 73 1020.3
20260503005017 13 0.0 0.0 0.00 0.00 0.00 73 1020.3
20260503004017 13 0.0 0.0 0.00 0.00 0.00 73 1020.3
20260503003017 13 0.0 0.0 0.00 0.00 0.00 73 1020.4
20260503002017 13 0.0 0.0 0.00 0.00 0.00 73 1020.4
20260503001017 13 0.0 0.0 0.00 0.00 0.00 73 1020.6
20260503000017 13 0.0 0.0 0.00 0.00 0.00 73 1020.7
20260502235017 13 0.0 0.0 0.00 0.00 0.00 73 1020.7
20260502234017 13 0.0 0.0 0.00 0.00 0.00 73 1020.7
20260502233017 13 0.0 0.0 0.00 0.00 0.00 72 1020.9
20260502232017 13 0.0 0.0 0.00 0.00 0.00 72 1021.0
20260502231017 14 0.0 0.0 0.00 0.00 0.00 71 1021.0
20260502230017 14 0.0 0.0 0.00 0.00 0.00 71 1021.1
20260502225017 14 0.0 0.0 0.00 0.00 0.00 71 1021.0
20260502224057 14 0.0 1.6 0.00 0.00 0.00 70 1021.1
20260502223016 14 0.0 1.6 0.00 0.00 0.00 70 1021.1
20260502222016 14 0.0 1.6 0.00 0.00 0.00 70 1021.2
20260502221017 14 0.0 1.6 0.00 0.00 0.00 70 1021.2
20260502220017 14 0.0 1.6 0.00 0.00 0.00 70 1021.1
20260502215016 15 0.0 0.0 0.00 0.00 0.00 69 1021.1
20260502214016 15 0.0 0.0 0.00 0.00 0.00 69 1021.1
20260502213015 15 0.0 1.6 0.00 0.00 0.00 67 1020.9
20260502212016 16 0.0 3.2 0.00 0.00 0.00 66 1021.0
20260502211016 16 0.0 0.0 0.00 0.00 0.00 64 1020.9
20260502210015 16 0.0 0.0 0.00 0.00 0.00 64 1020.9
20260502205015 16 0.0 0.0 0.00 0.00 0.00 63 1020.9
20260502204016 16 0.0 0.0 0.00 0.00 0.00 63 1020.9
20260502203016 17 0.0 0.0 0.00 0.00 0.00 62 1021.0
20260502202016 17 0.0 0.0 0.00 0.00 0.00 62 1021.0
20260502201016 17 0.0 0.0 0.00 0.00 0.00 61 1021.1
20260502200055 17 0.0 0.0 0.00 0.00 0.00 61 1021.1
20260502195016 17 0.0 0.0 0.00 0.00 0.00 60 1021.1
20260502194016 17 0.0 0.0 0.00 0.00 0.00 59 1021.0
20260502193055 18 0.0 1.6 0.00 0.00 0.00 59 1020.8
20260502192015 18 0.0 0.0 0.00 0.00 0.00 58 1020.8
20260502191015 18 0.0 0.0 0.00 0.00 0.00 57 1020.8
20260502190016 18 0.0 0.0 0.00 0.00 0.00 56 1020.6
20260502185016 19 0.0 1.6 0.00 0.00 0.00 55 1020.5
20260502184056 19 0.0 0.0 0.00 0.00 0.00 54 1020.4
20260502183015 20 0.0 0.0 0.00 0.00 0.00 53 1020.4
20260502182015 20 0.0 0.0 0.00 0.00 0.00 52 1020.3
20260502164015 26 0.0 1.6 0.00 0.00 0.00 38 1020.1
20260502163015 26 225 1.6 3.2 0.00 0.00 0.00 36 1020.2
20260502162016 26 225 4.8 11.3 0.00 0.00 0.00 35 1020.3
20260502161016 26 90 1.6 8.0 0.00 0.00 0.00 35 1020.2
20260502151455 26 180 1.6 1.6 0.00 0.00 0.00 36 1020.7
20260502150415 26 248 4.8 11.3 0.00 0.00 0.00 35 1020.9
20260502130455 26 135 3.2 6.4 0.00 0.00 0.00 35 1022.2
20260502123415 25 0.0 1.6 0.00 0.00 0.00 36 1022.6
20260502122415 25 293 4.8 8.0 0.00 0.00 0.00 36 1022.9
20260502121455 25 270 4.8 9.7 0.00 0.00 0.00 36 1023.0
20260502120415 25 225 4.8 8.0 0.00 0.00 0.00 35 1023.1
20260502115415 25 248 6.4 11.3 0.00 0.00 0.00 35 1023.2
20260502113415 25 0.0 3.2 0.00 0.00 0.00 37 1023.5
20260502112415 24 158 4.8 8.0 0.00 0.00 0.00 37 1023.7
20260502111417 24 203 4.8 8.0 0.00 0.00 0.00 36 1023.8
20260502110417 23 248 6.4 16.1 0.00 0.00 0.00 36 1023.9
20260502105417 23 225 4.8 11.3 0.00 0.00 0.00 37 1024.1
20260502104418 23 225 4.8 11.3 0.00 0.00 0.00 38 1024.1
20260502103017 23 158 1.6 3.2 0.00 0.00 0.00 38 1024.3
20260502102017 23 270 4.8 14.5 0.00 0.00 0.00 39 1024.4
20260502101017 23 135 4.8 6.4 0.00 0.00 0.00 39 1024.6
20260502091057 21 0.0 3.2 0.00 0.00 0.00 45 1025.4
20260502071017 16 0.0 0.0 0.00 0.00 0.00 59 1026.1
20260502070017 16 203 1.6 3.2 0.00 0.00 0.00 57 1026.2
20260502065017 16 0.0 1.6 0.00 0.00 0.00 57 1026.1
20260502064057 16 0.0 0.0 0.00 0.00 0.00 56 1026.2
20260502063017 15 0.0 0.0 0.00 0.00 0.00 56 1026.2
20260502062017 15 0.0 0.0 0.00 0.00 0.00 56 1026.4
20260502061017 16 0.0 0.0 0.00 0.00 0.00 56 1026.3
20260502060017 16 0.0 0.0 0.00 0.00 0.00 54 1026.4
20260502054017 15 0.0 0.0 0.00 0.00 0.00 57 1026.3
20260502053017 15 0.0 0.0 0.00 0.00 0.00 58 1026.4
20260502052017 13 0.0 0.0 0.00 0.00 0.00 62 1026.4
20260502051017 12 0.0 0.0 0.00 0.00 0.00 64 1026.4
20260502050017 10 0.0 0.0 0.00 0.00 0.00 70 1026.4
20260502045017 10 0.0 0.0 0.00 0.00 0.00 70 1026.4
20260502044017 10 0.0 0.0 0.00 0.00 0.00 72 1026.3
20260502043017 10 0.0 0.0 0.00 0.00 0.00 72 1026.3
20260502042017 9 0.0 0.0 0.00 0.00 0.00 72 1026.3
20260502041057 9 0.0 0.0 0.00 0.00 0.00 72 1026.2
20260502040017 9 0.0 0.0 0.00 0.00 0.00 72 1026.3
20260502035017 10 0.0 0.0 0.00 0.00 0.00 70 1026.1
20260502034034 10 0.0 0.0 0.00 0.00 0.00 70 1026.2
20260502033017 10 0.0 0.0 0.00 0.00 0.00 70 1026.2
20260502032017 10 0.0 1.6 0.00 0.00 0.00 70 1026.2
20260502031017 10 0.0 1.6 0.00 0.00 0.00 70 1026.2
20260502030017 10 0.0 0.0 0.00 0.00 0.00 71 1026.4
20260502025017 10 0.0 0.0 0.00 0.00 0.00 70 1026.5
20260502024017 10 0.0 0.0 0.00 0.00 0.00 69 1026.6
20260502023017 10 0.0 0.0 0.00 0.00 0.00 68 1026.5
20260502022017 10 0.0 0.0 0.00 0.00 0.00 69 1026.5